Volkel, Netherlands

2:56 PM CEST on August 17, 2017 (GMT +0200)
Volkel Air Base

Weather History for EHVK - December, 2012

Change the Weather History Date:

Sunday, December 23, 2012

  Actual Average Record
Temperature  
Mean Temperature 52 °F -  
Max Temperature 55 °F 40 °F 55 °F (2012)
Min Temperature 48 °F 31 °F 23 °F (1996)
Degree Days  
Heating Degree Days 14    
Growing Degree Days 2 (Base 50)    
Moisture  
Dew Point 52 °F    
Average Humidity 96    
Maximum Humidity 100    
Minimum Humidity 87    
Precipitation  
Precipitation 0.00 in - - ()
Sea Level Pressure  
Sea Level Pressure 29.64 in    
Wind  
Wind Speed 14 mph ()    
Max Wind Speed 22 mph    
Max Gust Speed 32 mph    
Visibility 4.5 miles    
Events Rain    
Averages and records for this station are not official NWS values.
T = Trace of Precipitation, MM = Missing Value Source: Averaged Metar Reports

Daily Weather History Graph

Daily Weather History Graph

Search for Another Location

Airport or City:

Trip Planner

Search our weather history database for the weather conditions in past years. The results will help you decide how hot, cold, wet, or windy it might be!

Date:

Astronomy

Dec. 23, 2012 Rise Set
Actual Time 8:42 AM CET 4:30 PM CET
Civil Twilight 8:01 AM CET 5:11 PM CET
Nautical Twilight 7:18 AM CET 5:54 PM CET
Astronomical Twilight 6:37 AM CET 6:35 PM CET
Moon 1:28 PM CET (12/23) 3:51 AM CET (12/23)
Length of Visible Light 9h 09m
Length of Day
7h 48m
Waxing Gibbous, 79% of the Moon is Illuminated
Dec 23
Waxing Gibbous
Dec 28
Full
Jan 5
Last Quarter
Jan 11
New
Jan 19
First Quarter

Hourly Weather History & Observations

Time (CET) Temp. Dew Point Humidity Pressure Visibility Wind Dir Wind Speed Gust Speed Precip Events Conditions
12:04 AM 48.2 °F 46.4 °F 93% 29.59 in 1.9 mi SSW 8.1 mph - N/A Rain Rain Showers
12:05 AM 48.2 °F 48.2 °F 100% 29.59 in - SSW 8.1 mph - N/A Rain Rain Showers
12:15 AM 48.2 °F 48.2 °F 100% 29.59 in 2.5 mi SSW 8.1 mph - N/A Rain Rain
12:25 AM 50.0 °F 48.2 °F 94% 29.59 in 2.8 mi SSW 9.2 mph - N/A Rain Rain
12:29 AM 50.0 °F 50.0 °F 100% 29.56 in - SW 10.4 mph - N/A Rain Light Rain
12:42 AM 50.0 °F 50.0 °F 100% 29.56 in 3.1 mi SW 10.4 mph - N/A Rain Light Rain
12:55 AM 50.0 °F 50.0 °F 100% 29.56 in - SW 10.4 mph - N/A   Drizzle
1:25 AM 51.8 °F 51.8 °F 100% 29.56 in 1.7 mi SW 11.5 mph - N/A Rain Heavy Drizzle
1:33 AM 51.8 °F 51.8 °F 100% 29.56 in 1.7 mi SW 11.5 mph - N/A Rain Light Rain
1:55 AM 51.8 °F 51.8 °F 100% 29.56 in 1.7 mi WSW 11.5 mph - N/A Rain Light Rain
2:25 AM 53.6 °F 53.6 °F 100% 29.56 in - WSW 12.7 mph - N/A   Heavy Drizzle
2:55 AM 53.6 °F 53.6 °F 100% 29.59 in - WSW 13.8 mph - N/A   Drizzle
3:25 AM 53.6 °F 53.6 °F 100% 29.59 in 1.6 mi WSW 13.8 mph - N/A   Heavy Drizzle
3:55 AM 53.6 °F 53.6 °F 100% 29.59 in - WSW 15.0 mph - N/A Rain Light Rain
4:17 AM 53.6 °F 51.8 °F 94% 29.59 in - WSW 15.0 mph - N/A   Drizzle
4:25 AM 53.6 °F 53.6 °F 100% 29.59 in - WSW 15.0 mph - N/A Rain Rain
4:37 AM 53.6 °F 53.6 °F 100% 29.59 in 3.1 mi WSW 15.0 mph - N/A Rain Light Rain
4:44 AM 53.6 °F 51.8 °F 94% 29.59 in 3.1 mi WSW 16.1 mph - N/A Rain Light Rain
4:49 AM 53.6 °F 51.8 °F 94% 29.59 in 3.1 mi WSW 15.0 mph - N/A Rain Rain
4:55 AM 53.6 °F 51.8 °F 94% 29.59 in 3.7 mi WSW 15.0 mph - N/A Rain Light Rain
4:59 AM 53.6 °F 51.8 °F 94% 29.56 in 3.7 mi WSW 15.0 mph - N/A Rain Light Rain
5:06 AM 53.6 °F 51.8 °F 94% 29.56 in 5.0 mi WSW 15.0 mph - N/A Rain Light Rain
5:10 AM 53.6 °F 53.6 °F 100% 29.56 in 4.3 mi WSW 15.0 mph - N/A Rain Light Rain
5:14 AM 53.6 °F 51.8 °F 94% 29.56 in 5.0 mi WSW 15.0 mph - N/A Rain Light Rain
5:25 AM 53.6 °F 53.6 °F 100% 29.56 in 5.6 mi SW 16.1 mph - N/A Rain Light Rain
5:29 AM 53.6 °F 51.8 °F 94% 29.56 in 6.2 mi SW 16.1 mph - N/A Rain Light Rain
5:38 AM 53.6 °F 51.8 °F 94% 29.56 in 4.3 mi SW 17.3 mph - N/A Rain Rain
5:55 AM 53.6 °F 51.8 °F 94% 29.56 in 4.3 mi WSW 18.4 mph - N/A Rain Light Rain Showers
6:19 AM 53.6 °F 53.6 °F 100% 29.59 in 5.0 mi WSW 17.3 mph - N/A Rain Rain Showers
6:25 AM 53.6 °F 53.6 °F 100% 29.59 in 3.7 mi WSW 18.4 mph - N/A Rain Light Rain Showers
6:40 AM 53.6 °F 51.8 °F 94% 29.59 in - WSW 17.3 mph - N/A Rain Rain
6:49 AM 53.6 °F 51.8 °F 94% 29.59 in - WSW 17.3 mph - N/A Rain Light Rain
6:55 AM 53.6 °F 53.6 °F 100% 29.56 in 1.9 mi WSW 18.4 mph - N/A Rain Light Rain Showers
7:01 AM 53.6 °F 53.6 °F 100% 29.59 in - WSW 18.4 mph - N/A   Light Drizzle
7:05 AM 53.6 °F 53.6 °F 100% 29.59 in - WSW 19.6 mph - N/A   Light Drizzle
7:06 AM 53.6 °F 53.6 °F 100% 29.59 in 5.0 mi WSW 19.6 mph - N/A   Drizzle
7:25 AM 55.4 °F 53.6 °F 94% 29.59 in 6.2 mi WSW 18.4 mph - N/A   Overcast
7:34 AM 55.4 °F 51.8 °F 88% 29.59 in 3.7 mi WSW 18.4 mph 29.9 mph N/A Rain Light Rain
7:48 AM 53.6 °F 53.6 °F 100% 29.59 in - WSW 19.6 mph - N/A   Heavy Drizzle
7:55 AM 53.6 °F 53.6 °F 100% 29.59 in - WSW 18.4 mph - N/A   Drizzle
7:59 AM 53.6 °F 53.6 °F 100% 29.59 in 2.2 mi WSW 17.3 mph - N/A   Drizzle
8:11 AM 53.6 °F 53.6 °F 100% 29.59 in - WSW 18.4 mph - N/A Rain Light Rain
8:21 AM 53.6 °F 53.6 °F 100% 29.59 in 2.2 mi WSW 17.3 mph - N/A Rain Light Rain
8:25 AM 53.6 °F 53.6 °F 100% 29.59 in - WSW 16.1 mph - N/A Rain Rain
8:38 AM 53.6 °F 53.6 °F 100% 29.59 in 3.7 mi WSW 17.3 mph - N/A Rain Light Rain
8:42 AM 55.4 °F 53.6 °F 94% 29.59 in 2.8 mi WSW 17.3 mph - N/A Rain Light Rain
8:51 AM 53.6 °F 53.6 °F 100% 29.59 in - WSW 17.3 mph - N/A Rain Light Rain
8:55 AM 55.4 °F 53.6 °F 94% 29.59 in - WSW 17.3 mph 28.8 mph N/A Rain Light Rain
8:59 AM 55.4 °F 53.6 °F 94% 29.59 in - WSW 18.4 mph - N/A Rain Light Rain
9:03 AM 55.4 °F 53.6 °F 94% 29.59 in - WSW 18.4 mph - N/A Rain Light Rain
9:09 AM 55.4 °F 53.6 °F 94% 29.59 in - WSW 19.6 mph - N/A Rain Light Rain
9:25 AM 55.4 °F 53.6 °F 94% 29.59 in - WSW 19.6 mph - N/A Rain Light Rain
9:29 AM 55.4 °F 53.6 °F 94% 29.59 in - WSW 18.4 mph - N/A Rain Rain
9:43 AM 55.4 °F 53.6 °F 94% 29.59 in 5.6 mi SW 19.6 mph - N/A Rain Light Rain
9:55 AM 55.4 °F 53.6 °F 94% 29.59 in 6.2 mi SW 19.6 mph - N/A   Drizzle
10:25 AM 55.4 °F 53.6 °F 94% 29.62 in 6.2 mi WSW 20.7 mph - N/A   Light Drizzle
10:31 AM 55.4 °F 53.6 °F 94% 29.62 in - WSW 21.9 mph - N/A   Heavy Drizzle
10:35 AM 55.4 °F 53.6 °F 94% 29.62 in - WSW 21.9 mph - N/A   Heavy Drizzle
10:39 AM 55.4 °F 53.6 °F 94% 29.62 in 2.2 mi WSW 20.7 mph - N/A   Heavy Drizzle
10:43 AM 55.4 °F 53.6 °F 94% 29.62 in - WSW 21.9 mph - N/A   Heavy Drizzle
10:55 AM 55.4 °F 53.6 °F 94% 29.62 in 3.1 mi WSW 21.9 mph - N/A   Mostly Cloudy
11:19 AM 55.4 °F 53.6 °F 94% 29.62 in 3.7 mi WSW 19.6 mph - N/A   Overcast
11:25 AM 55.4 °F 53.6 °F 94% 29.62 in 3.1 mi WSW 19.6 mph - N/A   Overcast
11:55 AM 55.4 °F 53.6 °F 94% 29.65 in 6.2 mi WSW 21.9 mph - N/A   Overcast
11:59 AM 55.4 °F 53.6 °F 94% 29.65 in 3.1 mi WSW 20.7 mph - N/A   Overcast
12:05 PM 55.4 °F 53.6 °F 94% 29.65 in 1.8 mi WSW 19.6 mph - N/A   Overcast
12:07 PM 55.4 °F 53.6 °F 94% 29.65 in - WSW 19.6 mph - N/A Rain Light Rain
12:13 PM 55.4 °F 53.6 °F 94% 29.65 in - WSW 19.6 mph - N/A Rain Drizzle
12:25 PM 53.6 °F 53.6 °F 100% 29.65 in - WSW 16.1 mph - N/A   Drizzle
12:27 PM 53.6 °F 53.6 °F 100% 29.65 in - WSW 16.1 mph - N/A   Drizzle
12:34 PM 53.6 °F 53.6 °F 100% 29.65 in - WSW 16.1 mph - N/A   Heavy Drizzle
12:43 PM 53.6 °F 53.6 °F 100% 29.65 in - WSW 16.1 mph - N/A   Heavy Drizzle
12:47 PM 53.6 °F 53.6 °F 100% 29.65 in - WSW 15.0 mph - N/A   Heavy Drizzle
12:51 PM 55.4 °F 53.6 °F 94% 29.65 in 3.1 mi WSW 17.3 mph 32.2 mph N/A   Drizzle
12:55 PM 55.4 °F 53.6 °F 94% 29.65 in 4.3 mi WSW 18.4 mph 32.2 mph N/A   Drizzle
1:08 PM 55.4 °F 53.6 °F 94% 29.65 in 6.2 mi SW 18.4 mph - N/A   Mostly Cloudy
1:25 PM 55.4 °F 53.6 °F 94% 29.65 in 6.2 mi SW 17.3 mph - N/A   Overcast
1:38 PM 55.4 °F 53.6 °F 94% 29.65 in 3.7 mi SW 19.6 mph - N/A   Mostly Cloudy
1:43 PM 55.4 °F 53.6 °F 94% 29.65 in - SW 18.4 mph - N/A   Mostly Cloudy
1:47 PM 53.6 °F 53.6 °F 100% 29.65 in - SW 18.4 mph - N/A   Overcast
1:55 PM 53.6 °F 53.6 °F 100% 29.65 in 1.9 mi SW 17.3 mph - N/A   Drizzle
1:57 PM 53.6 °F 53.6 °F 100% 29.65 in 2.2 mi SW 16.1 mph - N/A   Drizzle
2:04 PM 53.6 °F 53.6 °F 100% 29.65 in - WSW 16.1 mph - N/A   Heavy Drizzle
2:25 PM 53.6 °F 53.6 °F 100% 29.65 in 2.2 mi West 10.4 mph - N/A Rain Rain Showers
2:29 PM 53.6 °F 53.6 °F 100% 29.65 in - West 10.4 mph - N/A Rain Heavy Rain Showers
2:39 PM 53.6 °F 53.6 °F 100% 29.65 in - West 15.0 mph - N/A Rain Rain Showers
2:55 PM 53.6 °F 51.8 °F 94% 29.65 in 6.2 mi WSW 17.3 mph - N/A Rain Drizzle
2:59 PM 53.6 °F 51.8 °F 94% 29.65 in 6.2 mi West 18.4 mph 29.9 mph N/A   Mostly Cloudy
3:05 PM 53.6 °F 50.0 °F 88% 29.65 in 6.2 mi West 19.6 mph - N/A   Mostly Cloudy
3:09 PM 53.6 °F 50.0 °F 88% 29.65 in 6.2 mi West 18.4 mph 29.9 mph N/A Rain Light Rain
3:25 PM 53.6 °F 50.0 °F 88% 29.65 in 6.2 mi WSW 15.0 mph - N/A   Mostly Cloudy
3:55 PM 53.6 °F 50.0 °F 88% 29.68 in 6.2 mi West 12.7 mph - N/A   Mostly Cloudy
4:25 PM 51.8 °F 50.0 °F 94% 29.68 in 6.2 mi WSW 12.7 mph - N/A Rain Light Rain
4:55 PM 51.8 °F 50.0 °F 94% 29.68 in 6.2 mi SW 12.7 mph - N/A   Overcast
5:25 PM 51.8 °F 48.2 °F 88% 29.68 in 6.2 mi WSW 11.5 mph - N/A   Mostly Cloudy
5:55 PM 50.0 °F 48.2 °F 94% 29.71 in 6.2 mi SW 12.7 mph - N/A   Overcast
6:25 PM 50.0 °F 48.2 °F 94% 29.71 in 6.2 mi WSW 12.7 mph - N/A   Mostly Cloudy
6:55 PM 50.0 °F 48.2 °F 94% 29.71 in 6.2 mi SW 10.4 mph - N/A   Mostly Cloudy
7:11 PM 50.0 °F 48.2 °F 94% 29.71 in 6.2 mi SW 11.5 mph - N/A   Mostly Cloudy
7:25 PM 50.0 °F 48.2 °F 94% 29.71 in 6.2 mi SW 12.7 mph - N/A   Mostly Cloudy
7:29 PM 50.0 °F 48.2 °F 94% 29.71 in 6.2 mi SW 12.7 mph - N/A Rain Light Rain
7:55 PM 50.0 °F 48.2 °F 94% 29.74 in 6.2 mi SW 13.8 mph - N/A Rain Light Rain
8:25 PM 50.0 °F 48.2 °F 94% 29.74 in 6.2 mi SW 13.8 mph - N/A   Overcast
8:55 PM 50.0 °F 48.2 °F 94% 29.74 in 6.2 mi SW 12.7 mph - N/A   Drizzle
9:05 PM 50.0 °F 48.2 °F 94% 29.74 in 4.3 mi SW 12.7 mph - N/A Rain Light Rain
9:19 PM 50.0 °F 48.2 °F 94% 29.74 in 5.0 mi SW 13.8 mph - N/A Rain Light Rain Showers
9:25 PM 50.0 °F 48.2 °F 94% 29.74 in 4.3 mi SW 15.0 mph - N/A Rain Light Rain
9:29 PM 50.0 °F 48.2 °F 94% 29.74 in 3.7 mi SW 15.0 mph - N/A Rain Light Rain
9:34 PM 50.0 °F 48.2 °F 94% 29.74 in 3.7 mi SW 16.1 mph - N/A Rain Rain Showers
9:46 PM 50.0 °F 48.2 °F 94% 29.74 in 3.7 mi SW 16.1 mph - N/A Rain Light Rain
9:55 PM 50.0 °F 48.2 °F 94% 29.74 in 4.3 mi SW 13.8 mph - N/A Rain Light Rain Showers
9:59 PM 50.0 °F 48.2 °F 94% 29.74 in 5.0 mi SW 15.0 mph - N/A Rain Light Rain Showers
10:07 PM 50.0 °F 48.2 °F 94% 29.74 in 4.3 mi SW 15.0 mph - N/A Rain Light Rain
10:11 PM 50.0 °F 48.2 °F 94% 29.74 in 5.0 mi SW 17.3 mph - N/A Rain Light Rain
10:15 PM 50.0 °F 48.2 °F 94% 29.74 in 5.0 mi SW 18.4 mph - N/A Rain Light Rain
10:19 PM 50.0 °F 48.2 °F 94% 29.74 in 5.6 mi SW 18.4 mph - N/A Rain Light Rain Showers
10:25 PM 50.0 °F 48.2 °F 94% 29.74 in 6.2 mi SW 16.1 mph - N/A Rain Drizzle
10:38 PM 50.0 °F 46.4 °F 87% 29.74 in 6.2 mi SW 16.1 mph - N/A Rain Light Rain
10:42 PM 48.2 °F 46.4 °F 93% 29.74 in 6.2 mi SW 17.3 mph - N/A Rain Light Rain
10:46 PM 50.0 °F 46.4 °F 87% 29.74 in 6.2 mi SW 17.3 mph - N/A   Drizzle
10:55 PM 48.2 °F 46.4 °F 93% 29.74 in 6.2 mi SW 17.3 mph - N/A   Light Drizzle
11:25 PM 48.2 °F 46.4 °F 93% 29.77 in 6.2 mi SW 15.0 mph - N/A   Light Drizzle
11:55 PM 48.2 °F 46.4 °F 93% 29.77 in 6.2 mi SW 11.5 mph - N/A   Mostly Cloudy